NOAA 16 DEB

Satellite information

Favourite Embed

Satellite Type and Status

DEBRISIN ORBIT

Key statistics

Satellite NOAA 16 DEB at a glance.

Uptime

9214

Days in orbit

Revolutions

≈ 14.5

Per day

Orbit

SSO

Sun Synchronous Orbit

Inclination

99.0

Latest

Satellite identification and parameters

Extended collection of information and parameters for NOAA 16 DEB.

Object identification

Identified? True

Debris? True

Object name: NOAA 16 DEB

International designator: 2000-055KH

Object number (NORAD): 41404

Object ID (CCSDS): 41404

Country: UNITED STATES OF AMERICA (US)

Current information (Y/N): Y

RCS size: SMALL

Orbital parameters

Period: 99.335 minutes

Inclination: 99.0202 deg

SMA: 7104.947 km

Apoapsis: 747.173 km

Periapsis: 706.45 km

RAAN: 203.2903 deg

Eccentricy: 0.00286578

Argument of periapsis: 3.8554 deg

Mean anomaly: 356.2853 deg

Mean motion: 14.49644575 rev/day

Mean motion (dot): 0.00013621 rev/day2

B* drag term: 0.0035315262 1/REarth

Two-line elements (TLE)

Creation date: Dec. 11, 2025, 10:54 a.m.

Reference frame: TEME

Reference center: EARTH

Epoch: Dec. 11, 2025, 1:58 a.m. UTC

TLE line 0: 0 NOAA 16 DEB

TLE line 1: 1 41404U 00055KH 25345.08209058 .00013621 00000-0 35315-2 0 9996

TLE line 2: 2 41404 99.0202 203.2903 0028658 3.8554 356.2853 14.49644575510748

Live tracking on map

Real-time ground track for satellite NOAA 16 DEB.

In-orbit conjunctions

A list of the most updated potential collisions computed for object NOAA 16 DEB.

Target Orbit TCA Probability of collision Miss distance Type
PICOSAT 6 SSO 2025-07-12 10:05:53 0.0001285854 882.0 (m) PAYLOAD
CZ-6A DEB LEO 2024-12-01 06:59:09 0.0007130828 138.0 (m) DEBRIS
ADEOS SSO 2024-09-04 00:15:30 0.0001645314 901.0 (m) PAYLOAD

Associated space launch

The NOAA K, L and M POES satellites begin the fifth generation of improved environmental monitoring in support of NOAA missions. The instrument payload has significant improvements and additions/deletions. The instrument changes have effected the spacecraft subsystems and data formats.

NOAA 16 DEB was lifted into orbit during the mission ‘Titan II SLV | NOAA 16’, on board a Titan II SLV space rocket.

The launch took place on Sept. 21, 2000, 10:22 a.m. from Space Launch Complex 4W.

For more information about the launch, click the button.

Launch to space Titan II SLV | NOAA 16
Titan II SLV | NOAA 16

Agency: N/A

Status: Launch Successful

Launch date: Sept. 21, 2000, 10:22 a.m. UTC

Rocket: Titan II SLV

Launch pad: Space Launch Complex 4W

Location: Vandenberg SFB, CA, USA

...

Latest news about this satellite

There are no fresh news available about this satellite. Check back as we update our databases every day.


Newsletter sign-up

Weekly statistics, charts and insights to help you stay on top of the space industry.